Погода в Кремяном

Россия / Курская область     51°23′32″N   35°04′15″E
темп.,
°C
ветер,
м/с
пор.,
м/с
влажн.,
%
обл.,
%
осадки,
мм/ч
давл.,
гПа
погр.,
м
14 августа, вс
вс1400:00+23в41149100 0.0 1017417
03:00+21всв4105662 0.1 1016310
06:00+20вюв51164100 0.3 1017214
09:00+22в61362100 0.3 1016518
12:00+22всв61267100 0.0 1016435
15:00+26в7105296 0.0 1016978
18:00+25всв61059100 0.0 1015675
21:00+22всв6136599 0.0 1015412
15 августа, пн
пн1500:00+21в615589 0.0 1015394
03:00+19всв5146038 0.0 1014298
06:00+19всв5135965 0.0 1014269
09:00+23всв61454100 0.0 1013420
12:00+29в71036100 0.0 1013875
15:00+30в8103469 0.0 10121283
18:00+28всв71440100 0.0 1011609
21:00+27в81737100 0.0 1012499
16 августа, вт
вт1600:00+27всв91936100 0.0 1011609
03:00+26в81734100 0.0 1011754
06:00+23вюв61344100 0.0 1011356
09:00+26вюв51340100 0.0 1012659
12:00+24вюв81537100 0.0 1013637
15:00+24в61540100 0.0 1012766
18:00+26в71439100 0.0 1012893
21:00+24в7164628 0.0 1012488
17 августа, ср
ср1700:00+22в4114578 0.0 1012298
03:00+19в6126889 0.3 1011254
06:00+18в4978100 1.9 1011155
09:00+24вюв612556 1.9 1011640
12:00+29вюв673218 0.0 10101559
15:00+31вюв57295 0.0 10092323
18:00+30в23417 0.0 1009100
21:00+22вюв33580 0.1 100937
18 августа, чт
чт1800:00+20в4116898 0.3 1010178
03:00+19в337064 0.4 101057
06:00+18в4870100 0.3 1010163
09:00+22в575599 0.4 1011368
12:00+27в564291 0.1 1010871
15:00+31в57325 0.4 10101970
18:00+27в69465 0.0 1010817
21:00+22всв48593 0.0 1010148